Location: Strawberry
(45.6646°N, 111.9596°W)
Time: 17:10:36
(UTC+00:00)

SR - Pass Details

Date: 08 October 2022
Orbit: 577 x 874 km, 66.7° (Epoch: 05 December)

Event Time Altitude Azimuth Distance (km) Brightness Sun altitude
Exits shadow 11:05:31 - 333° (NNW) 2,621 ? -26.6°
Reaches altitude 10° 11:06:11 10° 335° (NNW) 2,371 ? -26.5°
Maximum altitude 11:11:28 50° 50° (NE) 954 ? -25.6°
Drops below altitude 10° 11:16:16 10° 126° (SE) 2,165 ? -24.8°
Sets 11:18:34 0° 132° (SE) 3,030 ? -24.4°
